Weather History for Olean, NY

Change the Weather History Date:

Wednesday, February 13, 2013

  Actual Average (KBFD) Record (KBFD)
Temperature  
Mean Temperature 29 °F 23 °F  
Max Temperature 35 °F 32 °F 58 °F (1990)
Min Temperature 21 °F 15 °F -15 °F (1979)
Degree Days  
Heating Degree Days 36 36  
Month to date heating degree days 481  
Since 1 July heating degree days 4892  
Cooling Degree Days 0 0  
Month to date cooling degree days 0  
Year to date cooling degree days 0  
Moisture  
Dew Point 21 °F    
Average Humidity 74    
Maximum Humidity 93    
Minimum Humidity 56    
Precipitation  
Precipitation 0.00 in 0.09 in 1.16 in (1971)
Month to date precipitation 1.10  
Year to date precipitation 4.39  
Sea Level Pressure  
Sea Level Pressure 29.72 in    
Wind  
Wind Speed 3 mph (West)    
Max Wind Speed 9 mph    
Max Gust Speed -    
Visibility 10 miles    
Events      
T = Trace of Precipitation, MM = Missing Value Source: NWS Daily Summary

Daily Weather History Graph

Daily Weather History Graph

Search for Another Location

Airport:

Trip Planner

Search our weather history database for the weather conditions in past years. The results will help you decide how hot, cold, wet, or windy it might be!

Date:

Astronomy

Feb. 13, 2013 Rise Set
Actual Time 7:12 AM EST 5:43 PM EST
Civil Twilight 6:43 AM EST 6:12 PM EST
Nautical Twilight 6:10 AM EST 6:45 PM EST
Astronomical Twilight 5:37 AM EST 7:18 PM EST
Moon 8:35 AM EST (2/13) 9:50 PM EST (2/13)
Length of Visible Light 11h 29m
Length of Day
10h 31m
Waxing Crescent, 13% of the Moon is Illuminated
Feb 13
Waxing Crescent
Feb 17
First Quarter
Feb 25
Full
Mar 4
Last Quarter
Mar 11
New

Hourly Weather History & Observations

Time (EST) Temp. Windchill Dew Point Humidity Pressure Visibility Wind Dir Wind Speed Gust Speed Precip Events Conditions
12:15 AM 26.6 °F 22.6 °F 21.2 °F 80% 29.83 in 10.0 mi WSW 3.5 mph - N/A   Overcast
12:35 AM 26.6 °F 22.6 °F 21.2 °F 80% 29.83 in 10.0 mi West 3.5 mph - N/A   Overcast
12:55 AM 26.6 °F 21.2 °F 21.2 °F 80% 29.83 in 10.0 mi West 4.6 mph - N/A   Overcast
1:15 AM 26.6 °F - 21.2 °F 80% 29.83 in 10.0 mi Calm Calm - N/A   Overcast
1:35 AM 26.6 °F 22.6 °F 21.2 °F 80% 29.83 in 10.0 mi WSW 3.5 mph - N/A   Overcast
1:55 AM 26.6 °F 22.6 °F 21.2 °F 80% 29.82 in 10.0 mi SW 3.5 mph - N/A   Overcast
2:15 AM 26.6 °F 22.6 °F 21.2 °F 80% 29.82 in 10.0 mi WSW 3.5 mph - N/A   Overcast
2:35 AM 26.6 °F 22.6 °F 21.2 °F 80% 29.82 in 10.0 mi SW 3.5 mph - N/A   Overcast
2:55 AM 26.6 °F - 21.2 °F 80% 29.80 in 10.0 mi Calm Calm - N/A   Overcast
3:15 AM 26.6 °F 22.6 °F 21.2 °F 80% 29.80 in 10.0 mi SW 3.5 mph - N/A   Overcast
3:35 AM 26.6 °F 22.6 °F 23.0 °F 86% 29.79 in 10.0 mi WSW 3.5 mph - N/A   Overcast
3:55 AM 26.6 °F 21.2 °F 23.0 °F 86% 29.78 in 10.0 mi WSW 4.6 mph - N/A   Overcast
4:15 AM 26.6 °F 22.6 °F 23.0 °F 86% 29.78 in 10.0 mi WSW 3.5 mph - N/A   Overcast
4:35 AM 26.6 °F 22.6 °F 23.0 °F 86% 29.78 in 10.0 mi WSW 3.5 mph - N/A   Overcast
4:55 AM 26.6 °F 22.6 °F 21.2 °F 80% 29.78 in 10.0 mi WSW 3.5 mph - N/A   Overcast
5:15 AM 26.6 °F - 23.0 °F 86% 29.78 in 10.0 mi Calm Calm - N/A   Overcast
5:35 AM 26.6 °F 21.2 °F 21.2 °F 80% 29.78 in 10.0 mi WSW 4.6 mph - N/A   Overcast
5:55 AM 26.6 °F - 21.2 °F 80% 29.78 in 10.0 mi Calm Calm - N/A   Overcast
6:15 AM 26.6 °F 20.0 °F 21.2 °F 80% 29.78 in 10.0 mi WSW 5.8 mph - N/A   Overcast
6:35 AM 26.6 °F 21.2 °F 21.2 °F 80% 29.78 in 10.0 mi West 4.6 mph - N/A   Overcast
6:55 AM 26.6 °F 19.1 °F 21.2 °F 80% 29.78 in 10.0 mi West 6.9 mph - N/A   Overcast
7:15 AM 26.6 °F 22.6 °F 21.2 °F 80% 29.77 in 10.0 mi West 3.5 mph - N/A   Overcast
7:35 AM 26.6 °F - 21.2 °F 80% 29.77 in 10.0 mi Calm Calm - N/A   Overcast
7:55 AM 26.6 °F 22.6 °F 21.2 °F 80% 29.77 in 10.0 mi WSW 3.5 mph - N/A   Overcast
8:15 AM 26.6 °F - 21.2 °F 80% 29.77 in 10.0 mi Calm Calm - N/A   Overcast
8:35 AM 26.6 °F 22.6 °F 21.2 °F 80% 29.76 in 10.0 mi West 3.5 mph - N/A   Overcast
8:55 AM 26.6 °F 22.6 °F 21.2 °F 80% 29.76 in 10.0 mi WSW 3.5 mph - N/A   Overcast
9:15 AM 26.6 °F - 21.2 °F 80% 29.75 in 10.0 mi Calm Calm - N/A   Overcast
9:35 AM 28.4 °F - 21.2 °F 74% 29.75 in 10.0 mi Calm Calm - N/A   Overcast
9:55 AM 28.4 °F 24.6 °F 19.4 °F 69% 29.74 in 10.0 mi SW 3.5 mph - N/A   Mostly Cloudy
10:15 AM 28.4 °F - 21.2 °F 74% 29.74 in 10.0 mi Calm Calm - N/A   Overcast
10:35 AM 28.4 °F - 19.4 °F 69% 29.73 in 10.0 mi Calm Calm - N/A   Mostly Cloudy
10:55 AM 28.4 °F - 19.4 °F 69% 29.72 in 10.0 mi Calm Calm - N/A   Mostly Cloudy
11:15 AM 30.2 °F - 19.4 °F 64% 29.71 in 10.0 mi Calm Calm - N/A   Scattered Clouds
11:35 AM 30.2 °F - 19.4 °F 64% 29.70 in 10.0 mi Calm Calm - N/A   Clear
11:55 AM 32.0 °F - 21.2 °F 64% 29.70 in 10.0 mi Calm Calm - N/A   Clear
12:15 PM 32.0 °F 26.4 °F 21.2 °F 64% 29.71 in 10.0 mi South 5.8 mph - N/A   Clear
12:35 PM 32.0 °F - 21.2 °F 64% 29.70 in 10.0 mi Calm Calm - N/A   Clear
12:55 PM 33.8 °F - 21.2 °F 60% 29.68 in 10.0 mi Calm Calm - N/A   Clear
1:15 PM 33.8 °F - 19.4 °F 56% 29.67 in 10.0 mi Calm Calm - N/A   Clear
1:35 PM 33.8 °F 27.7 °F 21.2 °F 60% 29.67 in 10.0 mi SSW 6.9 mph - N/A   Clear
1:55 PM 33.8 °F 29.6 °F 21.2 °F 60% 29.66 in 10.0 mi SSW 4.6 mph - N/A   Clear
2:15 PM 33.8 °F 30.8 °F 21.2 °F 60% 29.65 in 10.0 mi SSW 3.5 mph - N/A   Clear
2:35 PM 35.6 °F 31.7 °F 21.2 °F 56% 29.64 in 10.0 mi South 4.6 mph - N/A   Clear
2:55 PM 35.6 °F - 21.2 °F 56% 29.64 in 10.0 mi Calm Calm - N/A   Clear
3:15 PM 35.6 °F - 21.2 °F 56% 29.63 in 10.0 mi Calm Calm - N/A   Clear
3:35 PM 33.8 °F - 21.2 °F 60% 29.63 in 10.0 mi Calm Calm - N/A   Clear
3:55 PM 35.6 °F - 21.2 °F 56% 29.63 in 10.0 mi Calm Calm - N/A   Clear
4:15 PM 33.8 °F - 21.2 °F 60% 29.62 in 10.0 mi Calm Calm - N/A   Clear
4:35 PM 35.6 °F - 21.2 °F 56% 29.62 in 10.0 mi Calm Calm - N/A   Clear
4:55 PM 33.8 °F 30.8 °F 19.4 °F 56% 29.62 in 10.0 mi North 3.5 mph - N/A   Clear
5:15 PM 33.8 °F 30.8 °F 19.4 °F 56% 29.62 in 10.0 mi NNW 3.5 mph - N/A   Clear
5:35 PM 32.0 °F 24.2 °F 19.4 °F 60% 29.63 in 10.0 mi NNW 9.2 mph - N/A   Clear
5:55 PM 32.0 °F 28.7 °F 21.2 °F 64% 29.63 in 10.0 mi NW 3.5 mph - N/A   Clear
6:15 PM 32.0 °F 26.4 °F 21.2 °F 64% 29.64 in 10.0 mi NW 5.8 mph - N/A   Clear
6:35 PM 32.0 °F 26.4 °F 21.2 °F 64% 29.64 in 10.0 mi NNW 5.8 mph - N/A   Clear
6:55 PM 30.2 °F 24.3 °F 21.2 °F 69% 29.65 in 10.0 mi NNW 5.8 mph - N/A   Clear
7:15 PM 30.2 °F 24.3 °F 23.0 °F 75% 29.66 in 10.0 mi North 5.8 mph - N/A   Clear
7:35 PM 28.4 °F 21.2 °F 23.0 °F 80% 29.66 in 10.0 mi North 6.9 mph - N/A   Scattered Clouds
7:55 PM 28.4 °F 21.2 °F 23.0 °F 80% 29.67 in 10.0 mi North 6.9 mph - N/A   Scattered Clouds
8:15 PM 28.4 °F 23.3 °F 23.0 °F 80% 29.68 in 10.0 mi NNW 4.6 mph - N/A   Mostly Cloudy
8:35 PM 28.4 °F 23.3 °F 23.0 °F 80% 29.68 in 10.0 mi NNW 4.6 mph - N/A   Overcast
8:55 PM 26.6 °F 22.6 °F 21.2 °F 80% 29.68 in 10.0 mi NNW 3.5 mph - N/A   Overcast
9:15 PM 26.6 °F 22.6 °F 21.2 °F 80% 29.69 in 10.0 mi NNW 3.5 mph - N/A   Mostly Cloudy
9:35 PM 26.6 °F 22.6 °F 21.2 °F 80% 29.69 in 10.0 mi WNW 3.5 mph - N/A   Scattered Clouds
9:55 PM 24.8 °F 17.9 °F 21.2 °F 86% 29.69 in 10.0 mi NW 5.8 mph - N/A   Clear
10:15 PM 24.8 °F 20.5 °F 21.2 °F 86% 29.70 in 10.0 mi WNW 3.5 mph - N/A   Clear
10:35 PM 23.0 °F 18.4 °F 21.2 °F 93% 29.70 in 10.0 mi WNW 3.5 mph - N/A   Clear
10:55 PM 23.0 °F 17.0 °F 21.2 °F 93% 29.70 in 10.0 mi WNW 4.6 mph - N/A   Clear
11:15 PM 23.0 °F - 21.2 °F 93% 29.70 in 10.0 mi Calm Calm - N/A   Clear
11:35 PM 23.0 °F - 21.2 °F 93% 29.71 in 10.0 mi Calm Calm - N/A   Clear
11:55 PM 21.2 °F - 19.4 °F 93% 29.71 in 10.0 mi Calm Calm - N/A   Clear